Home > Weather > Bursa > Past weeks

Flag for Turkey Past Weather in Bursa, Turkey — Yesterday and Last 2 Weeks

Now
85 °F

Scattered clouds.


Feels Like: 88 °F
Forecast: 64 / 93 °F
Wind: 6 mph from Northeast

Location: Bursa

Current Time: Jul 30, 2016 at 12:23:03 PM

Latest Report: Jul 30, 2016 at 11:00 AM


Visibility: 6 mi

Pressure: 29.84 "Hg

Humidity: 57%

Dew Point: 68 °F

Location of BursaLocation

Past Weather in Bursa — Graph

°F

Bursa Temperature Yesterday

Maximum temperature yesterday: 94 °F (at 4:00 PM)
Minimum temperature yesterday: 70 °F (at 5:00 AM)
Average temperature yesterday: 83 °F

High & Low Weather Summary for the Past Weeks

 TemperatureHumidityPressure
High101 °F (Jul 16, 6:00 PM)92% (Jul 16, 4:00 AM)29.99 "Hg (Jul 16, 4:00 AM)
Low59 °F (Jul 22, 6:00 AM)26% (Jul 16, 5:00 PM)29.71 "Hg (Jul 16, 7:00 PM)
Average80 °F57%29.84 "Hg
* Reported Jul 15 11:00 AM — Jul 30 11:00 AM, Bursa, Weather by CustomWeather, © 2016

Note: Actual official high and low records may vary slightly from our data, if they occured in-between our weather recording intervals... More about our weather records

Advertising

Bursa Weather History for the Previous 24 Hours

Scroll right to see more
 ConditionsComfort  
Time TempWeatherWind HumidityBarometerVisibility
11:00 AM
Sat, Jul 30
85 °FScattered clouds.6 mph57%29.84 "Hg6 mi
10:00 AM82 °FScattered clouds.6 mph61%29.85 "Hg6 mi
9:00 AM80 °FScattered clouds.5 mph68%29.85 "Hg6 mi
8:00 AM74 °FScattered clouds.1 mph77%29.85 "Hg6 mi
7:00 AM71 °FSunny.No wind83%29.84 "Hg6 mi
6:00 AM70 °FSunny.1 mph84%29.83 "Hg6 mi
5:00 AM71 °FClear.1 mph82%29.82 "Hg6 mi
4:00 AM73 °FClear.2 mph76%29.80 "Hg6 mi
3:00 AM74 °FClear.1 mph75%29.81 "Hg6 mi
2:00 AM75 °FClear.1 mph71%29.80 "Hg9 mi
1:00 AM76 °FClear.1 mph70%29.80 "Hg9 mi
12:00 AM78 °FClear.3 mph67%29.80 "Hg9 mi
11:00 PM
Fri, Jul 29
79 °FClear.7 mph62%29.79 "Hg9 mi
10:00 PM81 °FClear.9 mph58%29.78 "Hg9 mi
9:00 PM82 °FClear.9 mph55%29.76 "Hg9 mi
8:00 PM85 °FSunny.14 mph49%29.75 "Hg9 mi
7:00 PM88 °FSunny.12 mph45%29.73 "Hg9 mi
6:00 PM91 °FScattered clouds.16 mph42%29.73 "Hg9 mi
5:00 PM92 °FSunny.13 mph42%29.73 "Hg9 mi
4:00 PM94 °FSunny.12 mph39%29.73 "Hg9 mi
3:00 PM93 °FSunny.12 mph43%29.74 "Hg9 mi
2:00 PM92 °FSunny.6 mph45%29.75 "Hg9 mi
1:00 PM90 °FSunny.6 mph49%29.77 "Hg9 mi
12:00 PM88 °FSunny.2 mph52%29.78 "Hg9 mi
Weather by CustomWeather, © 2016

See weather overviewHow to use our weather pages